CDT,Max TemperatureF,Mean TemperatureF,Min TemperatureF,Max Dew PointF,MeanDew PointF,Min DewpointF,Max Humidity, Mean Humidity, Min Humidity, Max Sea Level PressureIn, Mean Sea Level PressureIn, Min Sea Level PressureIn, Max VisibilityMiles, Mean VisibilityMiles, Min VisibilityMiles, Max Wind SpeedMPH, Mean Wind SpeedMPH, Max Gust SpeedMPH,PrecipitationIn, CloudCover, Events, WindDirDegrees
2012-9-1,83,78,72,75,73,71,95,88,71,30.23,30.16,30.09,10,9,2,13,7,20,0.20,3,Rain-Thunderstorm,189
2012-9-2,84,76,69,75,72,67,98,86,71,30.10,30.03,29.93,10,10,4,21,8,25,0.22,5,Rain-Thunderstorm,201
2012-9-3,81,74,68,75,71,68,97,92,76,29.99,29.95,29.90,10,10,7,13,6,18,0.04,6,Rain-Thunderstorm,196
2012-9-4,81,76,71,76,73,71,99,93,78,29.96,29.93,29.91,10,7,0,6,3,,0.01,6,Fog-Rain,172
2012-9-5,85,78,69,74,72,66,99,85,63,30.02,29.95,29.90,10,7,1,15,4,24,0.00,5,Rain,161
2012-9-6,87,76,66,74,69,66,99,82,55,30.04,29.99,29.92,10,9,1,7,1,,0.00,1,Thunderstorm,335
2012-9-7,89,78,66,73,70,66,100,79,53,30.02,29.96,29.86,10,8,1,7,1,,0.00,1,,192
2012-9-8,76,68,57,72,66,55,98,87,73,30.01,29.91,29.84,10,10,5,10,4,18,0.00,3,Rain,327
2012-9-9,76,63,50,59,54,50,99,76,44,30.10,30.05,29.97,10,10,2,9,2,,0.00,0,,351
2012-9-10,80,66,52,61,56,52,100,78,43,30.18,30.13,30.08,10,10,7,8,1,,0.00,1,,350
2012-9-11,80,68,55,61,58,55,99,73,44,30.26,30.21,30.15,10,10,7,7,2,,0.00,1,,120
2012-9-12,79,69,59,59,58,56,93,66,47,30.33,30.27,30.23,10,10,7,9,2,,0.00,3,,126
2012-9-13,80,71,62,62,59,56,89,67,47,30.33,30.27,30.22,10,10,10,8,3,,0.00,1,,109
2012-9-14,80,68,57,64,59,55,96,75,44,30.28,30.24,30.20,10,10,3,7,2,,0.00,1,,41
2012-9-15,82,69,56,67,61,56,99,79,48,30.24,30.19,30.13,10,8,0,7,1,,0.00,0,Fog,45
2012-9-16,83,72,62,70,64,62,97,78,51,30.14,30.09,30.04,10,10,10,6,0,,0.00,1,,161
2012-9-17,79,72,65,70,68,65,99,92,70,30.06,29.91,29.79,10,8,2,14,5,18,3.66,6,Rain-Thunderstorm,158
2012-9-18,75,66,55,67,62,47,100,90,69,30.06,29.87,29.76,10,8,2,10,3,20,0.91,6,Rain,340
2012-9-19,71,58,45,53,47,44,99,72,37,30.16,30.10,30.06,10,10,10,8,3,,0.00,0,,355
2012-9-20,77,61,45,56,51,46,100,75,39,30.15,30.10,30.06,10,10,10,7,1,,0.00,0,,195
2012-9-21,79,64,49,60,54,49,99,75,39,30.13,30.07,30.00,10,10,10,10,2,,0.00,0,,218
2012-9-22,82,68,53,64,58,50,96,71,36,30.15,30.08,30.01,10,10,10,10,5,17,0.00,0,,252
2012-9-23,73,61,48,52,48,41,99,71,31,30.25,30.20,30.14,10,10,10,7,2,,0.00,0,,353
2012-9-24,73,56,40,53,45,40,99,73,36,30.27,30.21,30.16,10,10,10,8,1,,0.00,0,,40
2012-9-25,78,64,51,57,51,44,92,60,39,30.21,30.17,30.14,10,10,7,9,3,,0.00,0,,168
2012-9-26,80,70,59,64,58,53,97,72,47,30.23,30.18,30.15,10,10,7,9,4,,0.00,0,,202
2012-9-27,84,71,58,67,62,57,98,80,48,30.24,30.18,30.12,10,10,7,7,2,,0.00,1,,216
2012-9-28,84,72,59,68,64,59,99,81,48,30.16,30.11,30.05,10,10,7,7,1,,0.00,1,,245
2012-9-29,77,70,61,66,64,57,99,87,65,30.07,30.01,29.96,10,7,2,9,1,,0.00,1,Rain,1
2012-9-30,68,62,55,64,59,54,99,91,74,29.97,29.86,29.73,10,7,2,9,2,,2.18,4,Rain,56